Regional Weather Roundup
Issued by NWS

Home | Current Version | Previous Version | Text Only | Print | Product List | Glossary Off
Versions: 1 2 3 4 5 6 7 8 9 10 11 12 13 14 15 16 17 18 19 20 21 22 23 24 25 26 27 28 29 30 31 32 33 34 35 36 37 38 39 40 41 42 43 44 45 46 47 48 49 50

000
ASUS45 KBOI 062010
RWRID
WEATHER ROUNDUP FOR IDAHO
NATIONAL WEATHER SERVICE BOISE ID
100 PM MST FRI MAR 06 2015

NOTE: "FAIR" INDICATES FEW OR NO CLOUDS BELOW 12000 FEET
WITH NO SIGNIFICANT WEATHER AND/OR OBSTRUCTIONS TO VISIBILITY

IDZ012-014-062100-
SOUTHWEST IDAHO


CITY           SKY/WX    TMP DP  RH WIND       PRES   REMARKS
BOISE          SUNNY     53  23  31 NW5       30.43F
CALDWELL       SUNNY     52  25  35 CALM      30.45F
MOUNTAIN HOME  SUNNY     52  21  29 VRB2      30.42F
$$

IDZ016-017-062100-
SOUTHCENTRAL IDAHO


CITY           SKY/WX    TMP DP  RH WIND       PRES   REMARKS
BURLEY         SUNNY     55  18  23 SW8       30.41F
JEROME         SUNNY     51  17  26 W5        30.43F
TWIN FALLS     SUNNY     56  19  23 NW8       30.42F
$$

IDZ019>023-062100-
SOUTHEAST IDAHO


CITY           SKY/WX    TMP DP  RH WIND       PRES   REMARKS
IDAHO FALLS    SUNNY     50  18  28 SW10      30.42F
POCATELLO      SUNNY     51  21  30 W14       30.44F
REXBURG        SUNNY     45  21  38 SW8       30.41F
$$

IDZ006-010-011-018-031-032-062100-
CENTRAL IDAHO MOUNTAINS


CITY           SKY/WX    TMP DP  RH WIND       PRES   REMARKS
MCCALL         SUNNY     47  14  26 CALM      30.40F
HAILEY         MOSUNNY   52  19  28 MISG      30.42F
STANLEY          N/A     39  12  33 N5        30.45F
SALMON         SUNNY     46  16  29 N3        30.42F
CHALLIS        SUNNY     50  12  21 VRB5      30.40F
$$

IDZ002-004-006-007-026-062100-
NORTHERN IDAHO


CITY           SKY/WX    TMP DP  RH WIND       PRES   REMARKS
LEWISTON       SUNNY     50  31  48 W3        30.41F
LOWELL           N/A     53  27  36 N3        30.42F
COEUR D`ALENE  SUNNY     54  28  37 S9        30.36F
MULLAN PASS    MOSUNNY   41  18  39 VRB3      30.35S
$$


USA.gov is the U.S. government's official web portal to all federal, state and local government web resources and services.